{"data":{"norad_id":52472,"epoch":"2026-05-25T01:55:36.892704Z","epoch_age_seconds":68037,"freshness":"FRESH","line1":"1 52472U 22049X   26145.08028811 -.00000254  00000+0  21623-5 0  9993","line2":"2 52472  53.2144  76.1893 0001858  57.5638 302.5534 15.08839645223784","mean_motion":15.08839645,"eccentricity":0.0001858,"inclination_deg":53.2144,"raan_deg":76.1893,"arg_perigee_deg":57.5638,"mean_anomaly_deg":302.5534,"bstar":2.1623e-6,"rev_number":22378,"period_min":95.437577132327,"perigee_km":538.45913167942,"apogee_km":541.02981643518,"semimajor_km":6917.8814740573,"source":"CELESTRAK","updated_at":"2026-05-25T13:38:17.153779Z"}}